Location: D�rnast
(49.6426°N, 11.9755°E)
Time: 13:40:59
(UTC+00:00)

USA 229 - Pass Details

Date: 24 January 2021
Orbit: 964 x 1248 km, 63.4° (Epoch: 26 February)

Event Time Altitude Azimuth Distance (km) Brightness Sun altitude
Rises 16:40:53 0° 314° (NW) 3,894 7.0 -7.7°
Reaches altitude 10° 16:43:36 10° 320° (NW) 2,977 6.3 -8.1°
Maximum altitude 16:50:29 48° 34° (NE) 1,480 4.2 -9.1°
Drops below altitude 10° 16:57:47 10° 108° (ESE) 3,154 5.7 -10.2°
Enters shadow 16:59:56 - 112° (ESE) 3,869 6.2 -10.6°
